Lid_Strength_Index
1 1 1 1 1 -0 -0 -0 -0 1 4 5 4 4 3 4 3 3 4 4 4 6 7 8 6 6 9 8
1 1 1 1 1 -0 0 0 -0 3 7 3 4 3 3 4 3 3 3 3 4 5 6 6 7 9 9 12
1 1 1 1 1 -0 -1 -0 3 5 7 2 5 4 4 4 4 4 4 3 4 6 6 10 13 11 14 12
1 1 1 1 1 1 2 1 1 8 6 7 5 4 4 4 5 5 5 6 8 10 10 13 16 14 13 12
1 1 3 5 7 8 6 7 7 8 7 6 4 5 4 5 5 7 11 8 12 14 13 12 10 11 12 12
1 2 4 6 6 6 8 6 6 6 6 6 7 6 5 8 9 12 10 12 14 11 10 10 10 11 12 12
2 4 5 5 4 4 9 7 6 7 6 6 8 8 7 9 10 12 12 14 12 9 10 11 11 12 12 12
5 5 6 3 3 4 12 10 8 6 5 6 8 6 6 8 10 11 11 12 10 10 11 11 11 14 9 9
7 6 5 3 4 5 18 8 8 5 6 8 7 7 6 8 11 11 13 14 12 12 12 12 10 12 9 10
5 5 4 3 4 12 17 10 8 9 10 8 8 7 8 8 8 11 11 12 10 11 12 10 10 9 9 11
7 4 4 5 14 16 9 10 10 9 10 10 10 10 10 12 14 16 16 13 12 11 10 12 10 11 13 19
4 5 5 9 17 11 11 8 9 10 12 11 11 10 11 13 12 13 15 16 17 13 12 12 13 13 13 19
3 5 8 14 13 11 9 10 10 13 13 11 11 12 13 13 13 13 16 16 15 12 12 11 12 13 15 11
5 6 10 11 11 8 8 10 13 12 13 12 13 13 13 11 12 11 12 14 18 13 11 11 10 13 11 15
5 9 13 12 9 8 8 10 11 12 11 12 12 13 12 11 10 11 12 14 16 15 13 14 14 13 14 14
10 12 12 11 7 8 8 9 10 9 11 11 12 12 12 11 9 11 13 13 15 17 16 13 12 13 15 15
14 14 13 11 9 8 9 10 10 9 9 11 12 11 11 9 10 11 12 13 15 18 18 15 14 15 13 14